Regional Weather Roundup
Issued by NWS

Home | Current Version | Previous Version | Graphics & Text | Print | Product List | Glossary On
Versions: 1 2 3 4 5 6 7 8 9 10 11 12 13 14 15 16 17 18 19 20 21 22 23 24 25 26 27 28 29 30 31 32 33 34 35 36 37 38 39 40 41 42 43 44 45 46 47 48 49 50
000
ASUS44 KMEG 270910
RWRTN
TENNESSEE HOURLY STATE WEATHER ROUNDUP
NATIONAL WEATHER SERVICE MEMPHIS TN
400 AM CDT THU JUL 27 2017

TNZ002-004-019-021-049-052-054-088>092-271000-
WEST TENNESSEE

CITY           SKY/WX    TMP DP  RH WIND       PRES   REMARKS
MEMPHIS INTL   PTCLDY    79  73  82 SW9       30.00S
NWS MEMPHIS      N/A     80 N/A N/A MISG        N/A
JACKSON        PTCLDY    76  74  93 SW7       30.00S
SOMERVILLE       N/A     77  72  83 S5        30.00S
COVINGTON      CLEAR     75  73  94 CALM      29.99R
UNION CITY       N/A     77  73  88 S5        29.96F
BOLIVAR        CLEAR     75  72  88 CALM      30.01R
PARIS          CLEAR     72  70  94 CALM      29.98S
HUNTINGDON     PTCLDY    75  73  94 S5        29.99R
LEXINGTON      CLEAR     73  73 100 CALM      30.00F
SAVANNAH       CLEAR     75  73  94 CALM      30.01R
$$

TNZ008-025-027-028-033-062-065-066-271000-
NORTH MIDDLE TENNESSEE

CITY           SKY/WX    TMP DP  RH WIND       PRES   REMARKS
NASHVILLE      MOCLDY    80  72  76 SW3       30.00F
PORTLAND         N/A     77  75  94 CALM      30.00R
CLARKSVILLE    CLOUDY    78  74  87 SW3       29.99R
SMYRNA         PTCLDY    76  73  91 S6        30.01S
COOKEVILLE       N/A     73  72  94 CALM      30.03S
GALLATIN       PTCLDY    77  75  94 CALM      30.02R FOG
CROSSVILLE     MOCLDY    72  69  90 CALM      30.09F
$$

TNZ061-075-076-078-094-096-097-271000-
SOUTH MIDDLE TENNESSEE

CITY           SKY/WX    TMP DP  RH WIND       PRES   REMARKS
FAYETTEVILLE   CLEAR     75  73  94 S3        30.04S
TULLAHOMA      CLEAR     73  72  94 CALM      30.06S
WINCHESTER     CLEAR     73  73 100 CALM      30.05
MCMINNVILLE    CLEAR     75  75 100 CALM      30.05S
COLUMBIA       MOCLDY    75  73  94 CALM      30.00S
SHELBYVILLE    CLEAR     73  73 100 CALM      30.03R
$$

TNZ017-018-042-046-047-271000-
NORTHEAST TENNESSEE

CITY           SKY/WX    TMP DP  RH WIND       PRES   REMARKS
TRI CITIES     CLOUDY    71  68  90 CALM      30.08S
ELIZABETHTON   CLOUDY    72  66  83 CALM      30.10R
$$

TNZ012-013-036-069-073-074-271000-
CENTRAL EAST TENNESSEE

CITY           SKY/WX    TMP DP  RH WIND       PRES   REMARKS
KNOXVILLE      CLOUDY    77  70  79 W5        30.04S
OAK RIDGE      MOCLDY    77  72  84 CALM      30.06S
GATLINBURG     PTCLDY    72  66  83 CALM      30.05R
MORRISTOWN     CLOUDY    73  70  88 CALM      30.06R
JACKSBORO      PTCLDY    72  72 100 CALM      30.08F FOG
$$

TNZ083-085-099-271000-
SOUTHEAST TENNESSEE

CITY           SKY/WX    TMP DP  RH WIND       PRES   REMARKS
CHATTANOOGA    CLOUDY    76  70  82 S5        30.06R
DAYTON         MOSUNNY   77  73  88 S5        30.03F
$$

SKY/WX REPORTED AS FAIR MEANS FEW OR NO CLOUDS BELOW
12 THOUSAND FEET.





USA.gov is the U.S. government's official web portal to all federal, state and local government web resources and services.